Wind_Speed
18 17 15 12 11 11 10 8 6 4 4 4 3 4 5 6 5 4 3 4 5 6 7 7 7 7 8 8 8 8 8 8 9 9 9 10 11 11 12 12 11 12
20 18 16 14 13 12 11 8 5 3 3 3 2 2 4 5 5 4 4 4 3 3 4 4 4 5 6 7 7 8 8 9 10 9 9 10 10 10 11 12 12 12
20 19 17 15 14 13 12 9 4 2 4 4 3 3 4 6 6 5 4 4 3 2 1 1 1 2 4 5 6 7 7 8 9 8 8 9 9 10 11 12 12 12
20 20 18 16 14 12 12 10 7 4 7 5 4 4 5 6 6 6 5 4 4 3 3 2 1 1 1 3 4 5 6 7 7 7 7 9 8 9 11 11 12 12
21 21 20 17 14 13 14 14 11 8 8 6 5 5 6 6 7 6 6 6 6 6 5 4 3 2 1 0 1 3 4 5 6 5 6 8 8 9 10 10 11 11
22 22 22 19 17 17 17 16 14 11 9 7 6 6 6 7 6 6 6 6 7 8 8 7 6 5 3 2 2 0 2 3 4 3 4 6 7 8 9 8 9 10
22 24 24 21 20 19 18 18 16 13 11 9 8 8 7 7 7 7 6 6 7 9 10 10 9 8 6 5 4 3 1 1 2 2 2 3 5 6 7 6 6 7
21 22 22 20 20 20 19 19 18 14 12 12 12 12 11 10 9 9 8 8 8 9 10 11 11 10 9 8 6 5 4 3 2 2 2 2 2 4 5 4 3 4
22 21 19 19 21 22 21 21 19 16 13 13 15 15 14 13 12 10 10 10 10 10 10 11 12 12 12 11 9 8 6 5 5 4 4 4 3 3 4 3 2 3
23 22 20 20 22 23 23 21 19 17 15 15 17 16 14 14 14 14 13 13 12 11 11 11 13 14 14 14 13 11 9 8 7 7 7 6 5 5 5 4 3 3
22 21 21 21 24 24 23 22 20 18 16 15 14 11 10 12 13 15 16 15 13 12 13 13 14 15 17 17 17 15 12 11 10 9 9 9 9 8 7 7 6 5
19 19 19 20 23 24 23 23 22 18 15 13 11 8 10 12 13 15 16 16 14 14 16 16 16 18 18 20 22 20 15 13 13 11 11 12 12 11 10 10 9 8
17 17 16 16 19 22 23 23 21 18 15 14 12 14 16 16 15 13 12 14 16 18 20 20 18 17 17 18 23 24 19 16 15 14 13 14 14 14 13 13 12 11
18 17 16 15 17 20 22 22 19 16 15 14 13 15 16 15 15 12 10 14 20 22 22 21 19 19 19 19 22 24 23 18 15 15 15 16 17 17 16 15 14 14
17 17 16 15 16 18 19 19 16 15 14 13 12 13 12 13 14 15 16 20 23 22 20 20 20 20 18 16 16 19 19 17 15 15 16 17 18 18 18 18 17 17
14 15 16 16 16 16 16 15 15 14 13 12 11 11 11 12 15 16 18 21 20 19 18 18 19 19 16 14 14 15 15 15 15 15 15 16 17 17 18 19 19 20
12 12 14 15 15 15 15 14 14 13 11 10 10 9 9 10 12 13 15 17 18 18 17 17 17 17 17 15 13 12 12 12 12 12 12 13 14 15 16 17 18 20
9 10 12 14 14 13 12 11 11 11 10 9 7 7 7 8 9 10 11 13 15 16 14 13 13 13 12 10 7 7 7 8 9 10 10 12 13 14 15 16 17 18
7 7 9 10 11 10 9 7 7 7 6 6 5 5 7 8 8 8 7 9 11 11 9 8 7 7 6 4 3 3 3 4 5 7 8 10 11 13 15 17 17 17
6 6 6 7 7 8 7 6 5 5 5 6 6 7 7 6 5 5 4 5 5 5 5 3 3 3 2 2 2 2 1 2 3 5 7 8 10 11 13 15 15 16
4 5 5 6 7 7 8 7 7 8 9 10 10 10 9 8 7 6 5 4 2 0 1 2 2 3 3 3 3 3 2 3 4 5 7 9 10 10 11 12 13 13
3 3 3 5 6 6 7 9 11 12 13 13 11 10 8 7 6 5 4 3 2 2 2 2 3 4 4 5 5 4 4 4 4 5 6 8 8 8 8 9 10 10
4 4 4 5 6 7 9 10 11 11 11 10 10 9 7 5 4 3 3 3 3 3 3 3 4 4 5 6 6 6 5 5 4 4 4 6 6 6 5 5 5 5
2 5 7 8 9 9 9 9 9 9 9 9 8 7 6 5 4 5 4 4 5 7 7 6 5 4 4 5 6 7 6 5 5 4 2 3 4 4 4 3 3 2
2 1 4 7 9 11 11 10 9 9 9 9 8 6 4 5 5 3 2 4 7 9 10 9 7 5 4 4 5 6 6 5 5 4 2 1 1 1 1 1 1 2
10 7 4 3 5 7 9 9 9 9 8 8 6 5 4 4 4 1 1 3 6 8 10 10 7 5 4 4 4 5 5 5 5 5 3 4 5 5 5 6 7 7
Wind_Direction
205 207 209 206 203 204 199 189 180 183 190 180 161 155 168 176 173 169 157 145 138 126 121 121 122 123 125 135 144 144 142 132 120 118 113 106 100 97 97 95 92 93
204 204 205 201 198 201 203 197 184 195 218 214 203 189 189 192 188 191 191 178 164 139 125 121 122 125 122 126 135 135 138 133 126 125 118 109 105 101 99 99 99 98
203 204 203 200 199 199 201 196 169 216 251 241 240 241 218 209 203 206 211 207 210 212 192 123 103 121 119 118 125 128 132 130 127 128 119 108 104 100 99 103 104 102
205 206 205 202 199 200 203 186 158 207 247 244 247 248 230 216 210 212 223 234 240 254 266 274 308 352 96 110 113 117 124 127 128 130 121 110 103 98 102 107 106 103
208 205 205 202 195 196 202 188 175 205 231 232 235 238 234 224 214 213 221 236 246 253 258 259 264 285 305 307 113 111 119 124 129 137 128 116 110 103 103 108 109 107
208 205 204 205 200 197 199 196 193 201 209 211 216 227 236 231 222 220 223 234 246 250 253 256 256 260 269 270 268 222 130 124 122 132 138 127 120 115 108 106 108 109
208 205 204 208 210 206 203 205 205 199 196 207 216 222 232 235 231 231 233 244 255 257 258 257 256 256 257 257 260 262 246 178 138 131 146 143 137 137 130 115 107 110
208 205 207 213 216 212 210 213 212 201 195 209 223 226 227 230 232 233 236 243 250 256 260 259 258 259 258 259 257 255 255 252 233 207 199 188 171 169 163 147 128 124
215 214 219 223 220 217 217 217 214 207 202 210 224 230 230 231 235 236 237 240 243 248 253 256 260 262 263 264 260 256 256 255 254 248 240 237 227 210 203 200 183 163
221 225 232 232 224 220 220 219 216 214 214 216 224 232 236 238 241 242 244 248 252 255 257 260 263 267 270 268 261 259 261 258 259 262 260 258 253 240 233 237 235 214
220 226 232 231 225 221 220 219 215 215 221 224 225 234 251 257 256 254 251 251 255 260 263 266 269 273 280 283 274 264 262 263 262 263 267 268 265 261 253 249 250 244
218 223 225 225 223 221 220 218 216 215 221 224 219 226 251 263 267 264 258 255 257 262 264 267 273 275 281 288 282 271 264 265 264 263 268 270 268 267 264 261 261 257
216 220 223 225 225 223 220 218 218 217 220 224 218 215 226 238 248 258 264 262 264 267 267 270 275 275 274 276 274 270 266 267 267 266 268 268 267 266 264 264 266 262
221 225 227 226 223 221 218 217 218 219 224 232 228 219 222 233 243 253 263 266 268 268 266 265 269 273 273 270 269 269 270 273 275 274 273 270 267 264 261 261 263 263
219 222 223 221 218 217 218 218 221 228 233 236 234 230 234 244 248 253 257 260 264 263 258 259 266 272 274 271 268 270 273 278 282 279 277 275 271 268 264 259 259 261
219 220 221 220 218 216 216 217 221 227 228 227 228 231 239 246 247 250 250 250 253 254 255 262 266 270 273 272 270 272 276 279 280 280 280 279 277 275 269 263 260 260
230 228 219 216 217 217 217 218 219 220 220 223 232 240 246 249 250 250 247 246 249 255 260 263 263 264 268 269 268 269 270 272 275 279 281 280 280 279 277 273 269 264
233 231 220 216 220 224 224 224 223 220 221 227 238 249 251 250 252 255 251 247 249 253 257 259 259 258 256 254 254 256 259 265 268 269 270 271 271 273 275 276 275 271
213 220 221 221 222 224 225 222 215 211 211 215 220 225 227 231 239 244 239 231 232 238 243 245 245 238 227 225 239 247 253 264 269 270 269 267 267 267 268 269 271 272
212 217 220 218 214 212 210 203 198 196 192 185 179 177 179 183 184 181 178 186 203 218 226 229 230 230 230 231 222 216 252 292 302 297 285 279 275 270 267 267 266 267
230 227 220 216 213 216 216 205 189 176 162 151 144 140 136 131 123 116 110 106 101 132 236 243 252 253 253 244 225 225 268 305 318 311 298 291 286 279 273 270 267 268
235 220 213 211 207 202 189 171 161 155 149 144 141 137 133 127 120 110 92 71 47 13 334 292 270 255 248 247 240 240 260 284 304 315 311 302 297 291 282 273 271 275
237 221 210 189 176 171 166 160 157 157 157 157 154 146 137 133 129 121 101 66 33 7 343 316 293 273 258 257 252 244 249 265 280 306 320 313 310 311 305 294 282 276
228 209 210 201 191 187 184 181 180 178 177 175 168 155 142 136 135 126 104 62 36 20 6 350 327 300 277 270 262 250 246 253 264 281 307 316 314 316 321 324 306 264
333 186 197 206 212 215 211 205 200 193 187 181 174 167 158 154 149 135 84 32 21 14 7 359 345 321 297 286 273 255 246 244 249 256 253 226 245 247 216 198 190 171
285 277 264 243 227 224 222 220 215 203 192 186 186 197 202 188 181 196 316 355 4 5 3 360 353 338 314 298 277 258 248 236 233 238 221 184 181 180 169 159 155 153
Height
814 816 817 819 820 822 823 824 826 827 828 829 830 831 832 833 833 834 835 835 836 836 836 837 836 836 836 836 836 836 836 836 836 836 835 835 835 835 835 836 836 837
814 816 817 819 820 822 824 825 826 828 829 830 831 832 833 834 835 835 836 837 838 838 839 839 839 839 838 837 837 836 836 836 836 836 836 835 835 835 835 836 837 837
815 816 818 819 821 822 824 826 827 828 830 831 832 833 834 835 836 837 837 838 839 840 840 841 841 841 840 840 839 838 838 838 837 837 837 836 836 836 837 837 838 838
814 816 817 819 821 822 825 826 827 829 830 831 832 833 834 835 836 837 838 839 839 841 842 842 843 842 842 842 841 840 840 839 839 839 839 839 838 838 838 839 839 840
813 815 816 819 820 822 824 826 827 828 830 831 832 833 834 835 836 837 838 839 839 841 841 842 843 843 843 843 842 842 842 841 841 841 841 840 840 840 840 840 841 841
811 813 815 818 819 820 823 825 826 827 828 830 832 833 834 835 836 837 837 838 839 840 841 842 843 843 843 843 843 843 843 843 843 843 842 842 841 842 842 842 842 842
810 811 813 816 818 819 822 824 826 826 827 830 831 832 834 835 836 836 837 838 839 840 841 842 843 843 843 843 843 843 844 843 844 844 844 843 843 843 843 843 843 843
809 811 813 815 818 819 821 823 825 825 826 828 830 832 833 834 835 836 836 837 838 840 841 842 843 843 843 844 843 843 843 843 844 844 844 844 844 844 844 844 844 844
809 811 812 815 817 818 820 822 823 824 825 827 829 831 832 833 834 835 835 837 838 839 840 841 842 843 843 843 843 843 843 843 843 844 844 844 844 844 845 845 845 845
808 810 812 814 816 817 819 821 823 824 824 826 828 829 831 832 833 834 835 837 838 838 840 840 841 842 843 843 843 843 843 842 842 843 843 843 844 844 844 845 845 845
809 811 812 814 815 816 818 820 821 823 824 825 827 829 831 833 834 835 835 836 837 838 839 839 840 840 842 843 844 843 842 842 842 842 842 843 843 843 844 844 845 845
810 811 812 813 814 815 817 819 820 822 823 824 825 828 831 832 833 834 834 835 837 837 838 838 838 839 840 843 844 844 842 842 841 841 841 842 842 843 843 843 844 844
810 810 811 812 813 814 816 818 819 821 822 822 823 824 826 828 829 831 833 834 835 835 836 837 837 837 838 840 842 842 842 840 840 840 840 840 841 841 842 843 843 843
809 810 811 811 812 814 815 817 818 819 819 820 822 823 824 826 827 829 831 832 833 834 835 836 836 836 837 838 838 839 840 839 838 838 838 839 839 839 840 841 842 842
808 809 810 811 812 813 814 816 817 817 818 820 821 822 823 824 826 826 828 830 831 832 833 834 835 835 835 836 836 836 837 837 836 837 837 837 837 837 838 839 840 840
807 808 809 810 811 812 813 815 816 817 818 819 820 821 821 822 824 825 826 828 829 831 832 832 832 833 833 834 834 834 835 835 835 835 835 836 836 836 836 836 837 838
807 807 808 808 809 811 812 813 815 816 817 818 819 819 820 821 822 823 824 826 828 829 830 830 831 831 831 832 833 833 833 833 833 833 834 834 834 834 834 834 835 836
806 806 807 808 809 810 811 812 814 815 816 817 817 817 818 819 821 822 823 825 826 827 828 828 829 829 830 831 831 831 831 831 831 832 832 832 832 832 832 832 833 833
805 806 806 807 808 809 810 811 812 813 814 815 815 816 817 818 820 821 822 823 825 826 826 826 827 828 829 829 829 830 830 830 830 830 831 831 830 830 830 831 831 831
806 806 806 807 808 809 809 810 810 811 812 813 815 816 817 818 819 820 821 822 823 824 824 825 825 826 826 827 828 828 828 829 829 829 829 829 829 829 828 828 829 829
807 807 807 808 808 808 809 809 810 811 812 813 815 815 816 818 818 819 820 821 822 822 822 823 823 824 825 825 826 827 827 827 828 828 828 827 827 827 827 827 827 828
808 808 807 808 808 808 809 809 810 811 812 813 815 815 817 818 818 819 820 820 821 821 822 822 823 823 824 824 825 825 826 826 826 826 826 826 826 825 825 826 826 826
809 809 808 808 809 809 810 811 811 812 813 814 814 815 816 817 818 819 820 821 821 822 822 823 823 823 823 823 824 824 825 825 825 825 825 825 825 825 825 825 825 826
809 809 809 810 810 810 811 811 812 813 813 814 815 815 816 817 818 819 820 821 822 822 822 822 822 822 822 822 823 823 824 824 824 824 824 824 825 825 825 826 826 826
810 810 810 810 810 811 811 812 813 813 813 814 815 815 816 817 818 819 819 820 820 820 821 821 821 821 821 821 822 822 823 823 824 824 824 824 825 826 826 827 827 828
809 810 809 810 810 811 811 812 813 813 813 814 814 815 816 816 817 817 818 819 819 819 820 820 820 820 820 820 821 821 822 822 823 824 824 824 825 826 827 828 828 829